Menu Close Menu
Station Historical Data
Daily Summary for August 30, 2017 Units:  Metric    English   Both
« Previous Day
Next Day »
Daily Weekly Monthly Yearly Custom
  High: Low: Average:
Temperature: 22.7 °C 20 °C 21 °C
Dew Point: 20 °C 18.2 °C 19.1 °C
Humidity: 94% 81% 89%
Wind Speed: 1.6km/h 0km/h 0km/h
Wind Gust: 3.2km/h - -
Wind- - WNW
Pressure: 1018.8 hPa 1015.8 hPa -
Precipitation: 9.91 mm    
Historical Graphs
 
 
Tabular Data for August 30, 2017
Time Temperature Dew Point Pressure Wind Wind Speed Wind Gust Humidity Rainfall Rate (Hourly) solar Conditions
00:00 22.2 °C 19 °C 1016.5 hPa Calm     82% 0 mm WeatherDisplay:10.37 W/m2 OVC
00:10 22.2 °C 18.9 °C 1016.1 hPa Calm     82% 0 mm WeatherDisplay:10.37 W/m2 OVC
00:15 22.1 °C 19.1 °C 1015.8 hPa Calm     83% 0 mm WeatherDisplay:10.37 W/m2 OVC
00:20 21.9 °C 18.9 °C 1015.8 hPa Calm     83% 0 mm WeatherDisplay:10.37 W/m2 CLR
00:25 21.9 °C 18.9 °C 1016.1 hPa Calm     83% 0 mm WeatherDisplay:10.37 W/m2 CLR
00:30 21.9 °C 18.9 °C 1016.1 hPa Calm     83% 0 mm WeatherDisplay:10.37 W/m2 CLR
00:40 21.9 °C 19.1 °C 1016.1 hPa Calm     84% 0 mm WeatherDisplay:10.37 W/m2 CLR
00:45 21.9 °C 18.9 °C 1016.1 hPa Calm     83% 0 mm WeatherDisplay:10.37 W/m2 CLR
00:50 21.9 °C 18.9 °C 1016.1 hPa Calm     83% 0 mm WeatherDisplay:10.37 W/m2 CLR
00:55 21.9 °C 18.9 °C 1016.1 hPa Calm     83% 0 mm WeatherDisplay:10.37 W/m2 CLR
01:00 21.9 °C 19.1 °C 1016.1 hPa Calm     84% 0 mm WeatherDisplay:10.37 W/m2 CLR
01:05 21.9 °C 19.1 °C 1016.1 hPa Calm     84% 0 mm WeatherDisplay:10.37 W/m2 CLR
01:15 21.9 °C 19.1 °C 1015.8 hPa Calm     84% 0 mm WeatherDisplay:10.37 W/m2 CLR
01:20 21.9 °C 19.1 °C 1015.8 hPa Calm     84% 0 mm WeatherDisplay:10.37 W/m2 CLR
01:25 21.9 °C 18.9 °C 1015.8 hPa Calm     83% 0 mm WeatherDisplay:10.37 W/m2 CLR
01:30 21.9 °C 18.9 °C 1015.8 hPa Calm     83% 0 mm WeatherDisplay:10.37 W/m2 CLR
01:40 21.8 °C 19 °C 1015.8 hPa Calm     84% 0 mm WeatherDisplay:10.37 W/m2 CLR
01:45 21.8 °C 18.9 °C 1015.8 hPa Calm     84% 0 mm WeatherDisplay:10.37 W/m2 CLR
01:50 21.7 °C 18.9 °C 1015.8 hPa Calm     84% 0 mm WeatherDisplay:10.37 W/m2 CLR
01:55 21.6 °C 18.8 °C 1015.8 hPa Calm     84% 0 mm WeatherDisplay:10.37 W/m2 CLR
02:00 21.5 °C 18.7 °C 1015.8 hPa Calm     84% 0 mm WeatherDisplay:10.37 W/m2 CLR
02:05 21.4 °C 18.8 °C 1015.8 hPa Calm     85% 0 mm WeatherDisplay:10.37 W/m2 CLR
02:10 21.4 °C 18.8 °C 1015.8 hPa Calm     85% 0 mm WeatherDisplay:10.37 W/m2 CLR
02:15 21.3 °C 18.7 °C 1015.8 hPa Calm     85% 0 mm WeatherDisplay:10.37 W/m2 CLR
02:20 21.3 °C 18.7 °C 1015.8 hPa Calm     85% 0 mm WeatherDisplay:10.37 W/m2 CLR
02:25 21.3 °C 18.7 °C 1015.8 hPa Calm     85% 0 mm WeatherDisplay:10.37 W/m2 CLR
02:30 21.3 °C 18.7 °C 1015.8 hPa Calm     85% 0 mm WeatherDisplay:10.37 W/m2 CLR
02:40 21.3 °C 18.7 °C 1015.8 hPa Calm     85% 0 mm WeatherDisplay:10.37 W/m2 CLR
02:45 21.2 °C 18.6 °C 1015.8 hPa Calm     85% 0 mm WeatherDisplay:10.37 W/m2 CLR
02:50 21.2 °C 18.6 °C 1015.8 hPa Calm     85% 0 mm WeatherDisplay:10.37 W/m2 CLR
02:55 21.2 °C 18.3 °C 1015.8 hPa Calm     84% 0 mm WeatherDisplay:10.37 W/m2 CLR
03:00 21.2 °C 18.3 °C 1015.8 hPa Calm     84% 0 mm WeatherDisplay:10.37 W/m2 CLR
03:05 21.2 °C 18.6 °C 1015.8 hPa Calm     85% 0 mm WeatherDisplay:10.37 W/m2 CLR
03:10 21.1 °C 18.5 °C 1015.8 hPa Calm     85% 0 mm WeatherDisplay:10.37 W/m2 CLR
03:15 21.1 °C 18.5 °C 1015.8 hPa Calm     85% 0 mm WeatherDisplay:10.37 W/m2 CLR
03:20 21.1 °C 18.3 °C 1015.8 hPa Calm     84% 0 mm WeatherDisplay:10.37 W/m2 CLR
03:30 21.1 °C 18.3 °C 1016.1 hPa Calm     84% 0 mm WeatherDisplay:10.37 W/m2 CLR
03:40 21 °C 18.4 °C 1016.1 hPa Calm     85% 0 mm WeatherDisplay:10.37 W/m2 CLR
03:45 20.9 °C 18.3 °C 1016.1 hPa Calm     85% 0 mm WeatherDisplay:10.37 W/m2 CLR
03:50 20.9 °C 18.3 °C 1016.1 hPa Calm     85% 0 mm WeatherDisplay:10.37 W/m2 CLR
04:00 20.9 °C 18.4 °C 1016.5 hPa Calm     86% 0 mm WeatherDisplay:10.37 W/m2 CLR
04:05 20.9 °C 18.4 °C 1016.1 hPa Calm     86% 0 mm WeatherDisplay:10.37 W/m2 CLR
04:10 20.9 °C 18.4 °C 1016.1 hPa Calm     86% 0 mm WeatherDisplay:10.37 W/m2 CLR
04:15 20.8 °C 18.4 °C 1016.1 hPa Calm     86% 0 mm WeatherDisplay:10.37 W/m2 CLR
04:20 20.8 °C 18.4 °C 1016.1 hPa Calm     86% 0 mm WeatherDisplay:10.37 W/m2 CLR
04:25 20.8 °C 18.2 °C 1016.1 hPa Calm     85% 0 mm WeatherDisplay:10.37 W/m2 CLR
04:30 20.8 °C 18.4 °C 1016.1 hPa Calm     86% 0 mm WeatherDisplay:10.37 W/m2 CLR
04:35 22.6 °C 19.4 °C 1018.5 hPa Calm   3.2 km/h 82% 0 mm WeatherDisplay:10.37 W/m2
04:40 20.8 °C 18.4 °C 1016.1 hPa Calm     86% 0 mm WeatherDisplay:10.37 W/m2 CLR
04:45 20.8 °C 18.3 °C 1016.1 hPa Calm     86% 0 mm WeatherDisplay:10.37 W/m2 CLR
04:50 20.8 °C 18.3 °C 1016.1 hPa Calm     86% 0 mm WeatherDisplay:10.37 W/m2 CLR
04:55 20.8 °C 18.3 °C 1016.1 hPa Calm     86% 0 mm WeatherDisplay:10.37 W/m2 CLR
05:00 20.8 °C 18.3 °C 1016.1 hPa Calm     86% 0 mm WeatherDisplay:10.37 W/m2 CLR
05:10 20.7 °C 18.3 °C 1016.1 hPa Calm     86% 0 mm WeatherDisplay:10.37 W/m2 CLR
05:15 20.7 °C 18.3 °C 1016.1 hPa Calm     86% 0 mm WeatherDisplay:10.37 W/m2 CLR
05:20 20.7 °C 18.3 °C 1016.5 hPa Calm     86% 0 mm WeatherDisplay:10.37 W/m2 FEW
05:25 20.7 °C 18.3 °C 1016.5 hPa Calm     86% 0 mm WeatherDisplay:10.37 W/m2 FEW
05:30 20.7 °C 18.3 °C 1016.5 hPa Calm     86% 0 mm WeatherDisplay:10.37 W/m2 FEW
05:40 20.7 °C 18.3 °C 1016.5 hPa Calm     86% 0 mm WeatherDisplay:10.37 W/m2 FEW
05:45 20.7 °C 18.5 °C 1016.5 hPa Calm     87% 0 mm WeatherDisplay:10.37 W/m2 FEW
05:50 20.7 °C 18.5 °C 1016.5 hPa Calm     87% 0 mm WeatherDisplay:10.37 W/m2 FEW
05:55 20.7 °C 18.4 °C 1016.5 hPa Calm     87% 0 mm WeatherDisplay:10.37 W/m2 FEW
06:00 20.7 °C 18.4 °C 1016.5 hPa Calm     87% 0 mm WeatherDisplay:10.37 W/m2 FEW
06:05 20.7 °C 18.4 °C 1016.5 hPa Calm     87% 0 mm WeatherDisplay:10.37 W/m2 FEW
06:10 20.7 °C 18.4 °C 1016.5 hPa Calm     87% 0 mm WeatherDisplay:10.37 W/m2 FEW
06:15 20.7 °C 18.4 °C 1016.5 hPa Calm     87% 0 mm WeatherDisplay:10.37 W/m2 FEW
06:20 20.7 °C 18.4 °C 1016.5 hPa Calm     87% 0 mm WeatherDisplay:10.37 W/m2 CLR
06:30 20.7 °C 18.4 °C 1016.5 hPa Calm     87% 0 mm WeatherDisplay:10.37 W/m2 CLR
06:40 20.7 °C 18.4 °C 1016.5 hPa Calm     87% 0 mm WeatherDisplay:10.37 W/m2 CLR
06:45 20.7 °C 18.4 °C 1016.5 hPa Calm     87% 0 mm WeatherDisplay:10.37 W/m2 CLR
06:50 20.7 °C 18.4 °C 1016.5 hPa Calm     87% 0 mm WeatherDisplay:10.37 W/m2 CLR
06:55 20.7 °C 18.4 °C 1016.5 hPa Calm     87% 0 mm WeatherDisplay:10.37 W/m2 CLR
07:00 20.6 °C 18.4 °C 1016.5 hPa Calm     87% 0 mm WeatherDisplay:10.37 W/m2 CLR
07:05 20.6 °C 18.4 °C 1016.5 hPa Calm     87% 0 mm WeatherDisplay:10.37 W/m2 CLR
07:10 20.6 °C 18.4 °C 1016.5 hPa Calm     87% 0 mm WeatherDisplay:10.37 W/m2 CLR
07:15 20.6 °C 18.4 °C 1016.8 hPa Calm     87% 0 mm WeatherDisplay:10.37 W/m2 CLR
07:20 20.6 °C 18.4 °C 1016.8 hPa Calm     87% 0 mm WeatherDisplay:10.37 W/m2 OVC
07:25 20.6 °C 18.4 °C 1016.8 hPa Calm     87% 0 mm WeatherDisplay:10.37 W/m2 OVC
07:35 20.7 °C 18.4 °C 1017.2 hPa Calm     87% 0 mm WeatherDisplay:10.37 W/m2 OVC
07:40 20.7 °C 18.4 °C 1017.2 hPa Calm     87% 0 mm WeatherDisplay:10.37 W/m2 OVC
07:45 20.7 °C 18.5 °C 1017.5 hPa Calm     87% 0 mm WeatherDisplay:10.37 W/m2 OVC
07:50 20.7 °C 18.5 °C 1017.5 hPa Calm     87% 0 mm WeatherDisplay:10.37 W/m2 OVC
07:55 20.8 °C 18.5 °C 1017.5 hPa Calm     87% 0 mm WeatherDisplay:10.37 W/m2 OVC
08:00 20.8 °C 18.6 °C 1017.5 hPa Calm     87% 0 mm WeatherDisplay:10.37 W/m2 OVC
08:05 20.8 °C 18.6 °C 1017.8 hPa Calm     87% 0 mm WeatherDisplay:10.37 W/m2 OVC
08:10 20.8 °C 18.4 °C 1017.5 hPa Calm     86% 0 mm WeatherDisplay:10.37 W/m2 OVC
08:15 20.9 °C 18.4 °C 1017.5 hPa Calm     86% 0 mm WeatherDisplay:10.37 W/m2 OVC
08:20 20.9 °C 18.5 °C 1017.8 hPa Calm     86% 0 mm WeatherDisplay:10.37 W/m2 OVC
08:25 20.9 °C 18.5 °C 1017.8 hPa Calm     86% 0 mm WeatherDisplay:10.37 W/m2 OVC
08:30 21 °C 18.6 °C 1017.8 hPa Calm     86% 0 mm WeatherDisplay:10.37 W/m2 OVC
08:35 21 °C 18.6 °C 1017.8 hPa Calm   1.6 km/h 86% 0 mm WeatherDisplay:10.37 W/m2 OVC
08:40 21.1 °C 18.6 °C 1017.8 hPa Calm   1.6 km/h 86% 0 mm WeatherDisplay:10.37 W/m2 OVC
08:45 21.1 °C 18.6 °C 1017.8 hPa Calm   1.6 km/h 86% 0 mm WeatherDisplay:10.37 W/m2 OVC
08:50 21.1 °C 18.7 °C 1017.8 hPa Calm     86% 0 mm WeatherDisplay:10.37 W/m2 OVC
08:55 21.1 °C 18.5 °C 1017.8 hPa Calm   1.6 km/h 85% 0 mm WeatherDisplay:10.37 W/m2 OVC
09:00 21.1 °C 18.7 °C 1017.8 hPa Calm     86% 0 mm WeatherDisplay:10.37 W/m2 OVC
09:05 21.1 °C 18.7 °C 1017.8 hPa Calm     86% 0 mm WeatherDisplay:10.37 W/m2 OVC
09:10 21.1 °C 18.7 °C 1017.8 hPa Calm     86% 0 mm WeatherDisplay:10.37 W/m2 OVC
09:15 21.2 °C 18.6 °C 1017.8 hPa Calm     85% 0 mm WeatherDisplay:10.37 W/m2 OVC
09:20 21.2 °C 18.6 °C 1017.8 hPa Calm     85% 0 mm WeatherDisplay:10.37 W/m2 OVC
09:25 21.3 °C 18.7 °C 1017.8 hPa Calm     85% 0 mm WeatherDisplay:10.37 W/m2 OVC
09:30 21.3 °C 18.7 °C 1017.8 hPa Calm     85% 0 mm WeatherDisplay:10.37 W/m2 OVC
09:40 21.4 °C 18.8 °C 1017.8 hPa Calm     85% 0 mm WeatherDisplay:10.37 W/m2 OVC
09:45 21.5 °C 18.9 °C 1017.8 hPa Calm     85% 0 mm WeatherDisplay:10.37 W/m2 OVC
09:50 21.6 °C 19 °C 1017.8 hPa Calm     85% 0 mm WeatherDisplay:10.37 W/m2 OVC
09:55 21.7 °C 18.9 °C 1017.8 hPa Calm   3.2 km/h 84% 0 mm WeatherDisplay:10.37 W/m2 OVC
10:00 21.8 °C 18.9 °C 1017.8 hPa Calm   3.2 km/h 84% 0 mm WeatherDisplay:10.37 W/m2 OVC
10:05 21.8 °C 18.9 °C 1017.8 hPa WNW 1.6 km/h 3.2 km/h 84% 0 mm WeatherDisplay:10.37 W/m2 OVC
10:10 21.8 °C 19 °C 1017.8 hPa Calm   3.2 km/h 84% 0 mm WeatherDisplay:10.37 W/m2 OVC
10:15 21.9 °C 19.1 °C 1017.8 hPa Calm   3.2 km/h 84% 0 mm WeatherDisplay:10.37 W/m2 OVC
10:20 21.9 °C 18.9 °C 1017.8 hPa Calm   3.2 km/h 83% 0 mm WeatherDisplay:10.37 W/m2 OVC
10:25 21.9 °C 18.9 °C 1017.8 hPa West 1.6 km/h 3.2 km/h 83% 0 mm WeatherDisplay:10.37 W/m2 OVC
10:30 21.9 °C 19.1 °C 1017.8 hPa Calm   3.2 km/h 84% 0 mm WeatherDisplay:10.37 W/m2 OVC
10:40 22.1 °C 19.2 °C 1018.2 hPa Calm   3.2 km/h 84% 0 mm WeatherDisplay:10.37 W/m2 OVC
10:50 22.1 °C 19.1 °C 1018.2 hPa Calm   1.6 km/h 83% 0 mm WeatherDisplay:10.37 W/m2 OVC
11:00 22.1 °C 19.1 °C 1018.2 hPa Calm   1.6 km/h 83% 0 mm WeatherDisplay:10.37 W/m2 OVC
11:05 22.1 °C 19.3 °C 1018.5 hPa Calm     84% 0 mm WeatherDisplay:10.37 W/m2 OVC
11:10 22.1 °C 19.1 °C 1018.5 hPa Calm   1.6 km/h 83% 0 mm WeatherDisplay:10.37 W/m2 OVC
11:15 22.1 °C 19.1 °C 1018.5 hPa Calm   1.6 km/h 83% 0 mm WeatherDisplay:10.37 W/m2 OVC
11:20 22.1 °C 19 °C 1018.5 hPa Calm   1.6 km/h 83% 0 mm WeatherDisplay:10.37 W/m2 OVC
11:25 22.1 °C 19.2 °C 1018.2 hPa Calm   1.6 km/h 84% 0 mm WeatherDisplay:10.37 W/m2 OVC
11:30 22.1 °C 19.1 °C 1018.2 hPa Calm   3.2 km/h 83% 0 mm WeatherDisplay:10.37 W/m2 OVC
11:35 22.2 °C 19.1 °C 1018.2 hPa Calm   1.6 km/h 83% 0 mm WeatherDisplay:10.37 W/m2 OVC
11:45 22.2 °C 19.2 °C 1018.2 hPa WNW 1.6 km/h 1.6 km/h 83% 0 mm WeatherDisplay:10.37 W/m2 OVC
11:55 22.2 °C 19.2 °C 1018.5 hPa Calm   1.6 km/h 83% 0 mm WeatherDisplay:10.37 W/m2 OVC
12:05 22.3 °C 19.3 °C 1018.2 hPa Calm   1.6 km/h 83% 0 mm WeatherDisplay:10.37 W/m2 OVC
12:15 22.5 °C 19.3 °C 1018.5 hPa Calm   1.6 km/h 82% 0 mm WeatherDisplay:10.37 W/m2 OVC
12:20 22.6 °C 19.4 °C 1018.5 hPa Calm   1.6 km/h 82% 0 mm WeatherDisplay:10.37 W/m2 -RA
12:25 22.7 °C 19.2 °C 1018.5 hPa Calm   1.6 km/h 81% 0 mm WeatherDisplay:10.37 W/m2 -RA
12:40 22.5 °C 19.4 °C 1018.8 hPa Calm     83% 0 mm WeatherDisplay:10.37 W/m2 -RA
12:50 22.1 °C 19.7 °C 1018.5 hPa Calm   1.6 km/h 86% 0 mm WeatherDisplay:10.37 W/m2 -RA
12:55 22 °C 19.7 °C 1018.5 hPa Calm     87% 0 mm WeatherDisplay:10.37 W/m2 -RA
13:00 21.8 °C 19.6 °C 1018.5 hPa Calm   1.6 km/h 87% 0 mm WeatherDisplay:10.37 W/m2 -RA
13:05 21.7 °C 19.7 °C 1018.5 hPa Calm   1.6 km/h 88% 0 mm WeatherDisplay:10.37 W/m2 -RA
13:10 21.7 °C 19.6 °C 1018.5 hPa Calm     88% 0 mm WeatherDisplay:10.37 W/m2 -RA
13:15 21.6 °C 19.6 °C 1018.5 hPa Calm     88% 0 mm WeatherDisplay:10.37 W/m2 -RA
13:20 21.6 °C 19.7 °C 1018.5 hPa Calm     89% 0 mm WeatherDisplay:10.37 W/m2 -RA
13:25 21.4 °C 19.6 °C 1018.5 hPa Calm   1.6 km/h 89% 0.25 mm WeatherDisplay:10.37 W/m2 -RA
13:30 21.4 °C 19.7 °C 1018.5 hPa Calm   1.6 km/h 90% 0 mm WeatherDisplay:10.37 W/m2 -RA
13:40 21.2 °C 19.6 °C 1018.8 hPa Calm   1.6 km/h 90% 0.25 mm WeatherDisplay:10.37 W/m2 -RA
13:45 21.2 °C 19.4 °C 1018.8 hPa Calm     90% 0.51 mm WeatherDisplay:10.37 W/m2 RA
13:50 21.1 °C 19.6 °C 1018.8 hPa Calm     91% 0.51 mm WeatherDisplay:10.37 W/m2 RA
13:55 21.1 °C 19.6 °C 1018.8 hPa Calm     91% 0.51 mm WeatherDisplay:10.37 W/m2 RA
14:00 21.1 °C 19.6 °C 1018.8 hPa Calm   1.6 km/h 91% 0.76 mm WeatherDisplay:10.37 W/m2 RA
14:10 21.1 °C 19.7 °C 1018.8 hPa Calm     92% 0.51 mm WeatherDisplay:10.37 W/m2 RA
14:15 21.1 °C 19.8 °C 1018.8 hPa Calm   1.6 km/h 92% 0.25 mm WeatherDisplay:10.37 W/m2 -RA
14:20 21.1 °C 19.8 °C 1018.8 hPa Calm   1.6 km/h 92% 0.25 mm WeatherDisplay:10.37 W/m2 -RA
14:25 21.2 °C 19.8 °C 1018.8 hPa Calm     92% 0 mm WeatherDisplay:10.37 W/m2 -RA
14:30 21.1 °C 19.8 °C 1018.8 hPa Calm   1.6 km/h 92% 0.25 mm WeatherDisplay:10.37 W/m2 -RA
14:40 21 °C 19.7 °C 1018.8 hPa Calm   1.6 km/h 92% 0.25 mm WeatherDisplay:10.37 W/m2 -RA
14:45 21 °C 19.6 °C 1018.8 hPa Calm   1.6 km/h 92% 0.25 mm WeatherDisplay:10.37 W/m2 -RA
14:50 20.9 °C 19.6 °C 1018.8 hPa Calm   1.6 km/h 92% 0.25 mm WeatherDisplay:10.37 W/m2 -RA
14:55 21 °C 19.7 °C 1018.8 hPa Calm     92% 0 mm WeatherDisplay:10.37 W/m2 -RA
15:00 21.1 °C 19.7 °C 1018.5 hPa Calm     92% 0 mm WeatherDisplay:10.37 W/m2 -RA
15:05 21.2 °C 19.8 °C 1018.5 hPa Calm     92% 0 mm WeatherDisplay:10.37 W/m2 -RA
15:10 21.1 °C 19.7 °C 1018.2 hPa Calm     92% 0.25 mm WeatherDisplay:10.37 W/m2 -RA
15:15 21.1 °C 19.7 °C 1018.2 hPa Calm     92% 0 mm WeatherDisplay:10.37 W/m2 -RA
15:20 21 °C 19.7 °C 1018.2 hPa Calm   1.6 km/h 92% 0 mm WeatherDisplay:10.37 W/m2 -RA
15:25 21.1 °C 19.7 °C 1018.2 hPa Calm     92% 0 mm WeatherDisplay:10.37 W/m2 -RA
15:30 21.1 °C 19.7 °C 1018.2 hPa Calm     92% 0 mm WeatherDisplay:10.37 W/m2 -RA
15:35 21.1 °C 19.7 °C 1017.8 hPa Calm   1.6 km/h 92% 0 mm WeatherDisplay:10.37 W/m2 -RA
15:40 21 °C 19.7 °C 1017.8 hPa Calm   1.6 km/h 92% 0.25 mm WeatherDisplay:10.37 W/m2 -RA
15:45 21 °C 19.7 °C 1017.8 hPa Calm   1.6 km/h 92% 0 mm WeatherDisplay:10.37 W/m2 -RA
15:50 21.1 °C 19.7 °C 1017.5 hPa Calm     92% 0 mm WeatherDisplay:10.37 W/m2 -RA
16:00 21 °C 19.7 °C 1017.5 hPa Calm   1.6 km/h 92% 0 mm WeatherDisplay:10.37 W/m2 -RA
16:05 20.9 °C 19.6 °C 1017.5 hPa Calm   1.6 km/h 92% 0 mm WeatherDisplay:10.37 W/m2 -RA
16:10 21 °C 19.7 °C 1017.5 hPa Calm   1.6 km/h 92% 0 mm WeatherDisplay:10.37 W/m2 -RA
16:15 20.9 °C 19.6 °C 1017.5 hPa Calm   1.6 km/h 92% 0 mm WeatherDisplay:10.37 W/m2 -RA
16:20 20.9 °C 19.6 °C 1017.5 hPa Calm   1.6 km/h 92% 0.25 mm WeatherDisplay:10.37 W/m2 -RA
16:25 20.9 °C 19.6 °C 1017.5 hPa Calm   1.6 km/h 92% 0 mm WeatherDisplay:10.37 W/m2 -RA
16:30 20.9 °C 19.6 °C 1017.2 hPa Calm   1.6 km/h 92% 0 mm WeatherDisplay:10.37 W/m2 -RA
16:35 21 °C 19.8 °C 1016.8 hPa Calm   1.6 km/h 93% 0 mm WeatherDisplay:10.37 W/m2 -RA
16:40 20.9 °C 19.8 °C 1016.8 hPa Calm   1.6 km/h 93% 0 mm WeatherDisplay:10.37 W/m2 -RA
16:45 20.9 °C 19.6 °C 1016.8 hPa Calm   1.6 km/h 92% 0 mm WeatherDisplay:10.37 W/m2 -RA
16:55 21.1 °C 19.8 °C 1017.2 hPa Calm   1.6 km/h 93% 0.25 mm WeatherDisplay:10.37 W/m2 -RA
17:00 21.1 °C 19.9 °C 1017.2 hPa Calm   1.6 km/h 93% 0 mm WeatherDisplay:10.37 W/m2 -RA
17:10 21.2 °C 20 °C 1017.2 hPa Calm     93% 0 mm WeatherDisplay:10.37 W/m2 -RA
17:20 21.1 °C 19.9 °C 1017.2 hPa Calm     93% 0 mm WeatherDisplay:10.37 W/m2 -RA
17:25 21.1 °C 19.9 °C 1017.2 hPa Calm     93% 0 mm WeatherDisplay:10.37 W/m2 -RA
17:30 21.1 °C 19.9 °C 1017.5 hPa Calm     93% 0 mm WeatherDisplay:10.37 W/m2 -RA
17:35 21 °C 19.8 °C 1017.5 hPa Calm     93% 0 mm WeatherDisplay:10.37 W/m2 -RA
17:40 20.9 °C 19.6 °C 1017.5 hPa Calm     92% 0 mm WeatherDisplay:10.37 W/m2 -RA
17:45 20.9 °C 19.7 °C 1017.5 hPa Calm     93% 0 mm WeatherDisplay:10.37 W/m2 -RA
17:50 20.9 °C 19.7 °C 1017.5 hPa Calm     93% 0 mm WeatherDisplay:10.37 W/m2 -RA
17:55 20.8 °C 19.5 °C 1017.2 hPa Calm     92% 0 mm WeatherDisplay:10.37 W/m2 -RA
18:00 20.8 °C 19.7 °C 1017.5 hPa Calm     93% 0 mm WeatherDisplay:10.37 W/m2 -RA
18:10 20.7 °C 19.4 °C 1017.5 hPa Calm     92% 0 mm WeatherDisplay:10.37 W/m2 -RA
18:15 20.7 °C 19.3 °C 1017.8 hPa Calm     92% 0 mm WeatherDisplay:10.37 W/m2 -RA
18:20 20.7 °C 19.5 °C 1017.8 hPa Calm     93% 0 mm WeatherDisplay:10.37 W/m2 -RA
18:25 20.6 °C 19.4 °C 1017.8 hPa Calm     93% 0 mm WeatherDisplay:10.37 W/m2 -RA
18:30 20.6 °C 19.2 °C 1017.5 hPa Calm     92% 0.25 mm WeatherDisplay:10.37 W/m2 -RA
18:40 20.7 °C 19.5 °C 1017.5 hPa Calm     93% 0 mm WeatherDisplay:10.37 W/m2 -RA
18:45 20.7 °C 19.5 °C 1017.8 hPa Calm     93% 0.25 mm WeatherDisplay:10.37 W/m2 -RA
18:50 20.6 °C 19.4 °C 1017.8 hPa Calm     93% 0 mm WeatherDisplay:10.37 W/m2 -RA
18:55 20.7 °C 19.4 °C 1017.8 hPa Calm     93% 0 mm WeatherDisplay:10.37 W/m2 -RA
19:00 20.6 °C 19.4 °C 1017.8 hPa Calm     93% 0 mm WeatherDisplay:10.37 W/m2 -RA
19:05 20.6 °C 19.4 °C 1017.5 hPa Calm     93% 0 mm WeatherDisplay:10.37 W/m2 -RA
19:10 20.6 °C 19.4 °C 1017.5 hPa Calm     93% 0 mm WeatherDisplay:10.37 W/m2 -RA
19:15 20.6 °C 19.4 °C 1017.5 hPa Calm     93% 0 mm WeatherDisplay:10.37 W/m2 -RA
19:20 20.6 °C 19.4 °C 1017.5 hPa Calm     93% 0 mm WeatherDisplay:10.37 W/m2 -RA
19:25 20.5 °C 19.3 °C 1017.5 hPa Calm     93% 0.25 mm WeatherDisplay:10.37 W/m2 -RA
19:30 20.4 °C 19.3 °C 1017.5 hPa Calm     93% 0 mm WeatherDisplay:10.37 W/m2 -RA
19:35 20.4 °C 19.2 °C 1017.5 hPa Calm     93% 0 mm WeatherDisplay:10.37 W/m2 -RA
19:40 20.3 °C 19.2 °C 1017.5 hPa Calm     93% 0 mm WeatherDisplay:10.37 W/m2 -RA
19:45 20.3 °C 19.2 °C 1017.2 hPa Calm   1.6 km/h 93% 0 mm WeatherDisplay:10.37 W/m2 -RA
19:50 20.3 °C 19.1 °C 1017.2 hPa Calm   1.6 km/h 93% 0 mm WeatherDisplay:10.37 W/m2 OVC
19:55 20.3 °C 19.1 °C 1017.2 hPa Calm   1.6 km/h 93% 0 mm WeatherDisplay:10.37 W/m2 OVC
20:00 20.3 °C 19.1 °C 1017.5 hPa Calm   1.6 km/h 93% 0 mm WeatherDisplay:10.37 W/m2 OVC
20:05 20.2 °C 19.1 °C 1017.5 hPa Calm   1.6 km/h 93% 0 mm WeatherDisplay:10.37 W/m2 OVC
20:10 20.2 °C 19.1 °C 1017.5 hPa Calm   1.6 km/h 93% 0 mm WeatherDisplay:10.37 W/m2 OVC
20:15 20.2 °C 19.1 °C 1017.5 hPa Calm     93% 0 mm WeatherDisplay:10.37 W/m2 OVC
20:20 20.2 °C 19.1 °C 1017.2 hPa Calm   1.6 km/h 93% 0 mm WeatherDisplay:10.37 W/m2 BKN
20:25 20.2 °C 19.1 °C 1017.5 hPa Calm   1.6 km/h 93% 0 mm WeatherDisplay:10.37 W/m2 BKN
20:30 20.2 °C 19.1 °C 1017.5 hPa Calm     93% 0 mm WeatherDisplay:10.37 W/m2 BKN
20:35 20.2 °C 19.1 °C 1017.5 hPa Calm   1.6 km/h 93% 0 mm WeatherDisplay:10.37 W/m2 BKN
20:40 20.2 °C 19.1 °C 1017.5 hPa Calm   1.6 km/h 93% 0 mm WeatherDisplay:10.37 W/m2 BKN
20:45 20.2 °C 19 °C 1017.5 hPa Calm   1.6 km/h 93% 0 mm WeatherDisplay:10.37 W/m2 BKN
20:50 20.2 °C 19 °C 1017.8 hPa Calm     93% 0 mm WeatherDisplay:10.37 W/m2 BKN
20:55 20.2 °C 19 °C 1017.8 hPa Calm     93% 0 mm WeatherDisplay:10.37 W/m2 BKN
21:00 20.2 °C 19 °C 1017.8 hPa Calm     93% 0 mm WeatherDisplay:10.37 W/m2 BKN
21:10 20.2 °C 19 °C 1017.8 hPa Calm     93% 0 mm WeatherDisplay:10.37 W/m2 BKN
21:15 20.1 °C 18.9 °C 1017.8 hPa Calm   1.6 km/h 93% 0 mm WeatherDisplay:10.37 W/m2 BKN
21:20 20.1 °C 18.9 °C 1018.2 hPa Calm   1.6 km/h 93% 0 mm WeatherDisplay:10.37 W/m2 -RA
21:25 20.1 °C 18.9 °C 1018.2 hPa Calm   1.6 km/h 93% 0 mm WeatherDisplay:10.37 W/m2 -RA
21:30 20.1 °C 18.9 °C 1018.2 hPa Calm   1.6 km/h 93% 0 mm WeatherDisplay:10.37 W/m2 -RA
21:35 20.1 °C 18.9 °C 1017.8 hPa Calm   1.6 km/h 93% 0 mm WeatherDisplay:10.37 W/m2 -RA
21:40 20.1 °C 18.9 °C 1017.8 hPa Calm   1.6 km/h 93% 0 mm WeatherDisplay:10.37 W/m2 -RA
21:45 20.1 °C 18.9 °C 1018.2 hPa Calm   3.2 km/h 93% 0 mm WeatherDisplay:10.37 W/m2 -RA
21:50 20.1 °C 18.9 °C 1017.8 hPa Calm   1.6 km/h 93% 0 mm WeatherDisplay:10.37 W/m2 -RA
21:55 20 °C 18.8 °C 1017.8 hPa Calm   1.6 km/h 93% 0 mm WeatherDisplay:10.37 W/m2 -RA
22:00 20 °C 18.8 °C 1018.2 hPa Calm   1.6 km/h 93% 0 mm WeatherDisplay:10.37 W/m2 -RA
22:05 20 °C 18.8 °C 1018.2 hPa Calm   1.6 km/h 93% 0 mm WeatherDisplay:10.37 W/m2 -RA
22:10 20 °C 18.8 °C 1018.2 hPa Calm   1.6 km/h 93% 0 mm WeatherDisplay:10.37 W/m2 -RA
22:15 20 °C 18.8 °C 1018.2 hPa Calm   1.6 km/h 93% 0 mm WeatherDisplay:10.37 W/m2 -RA
22:20 20.1 °C 19.1 °C 1018.2 hPa Calm   1.6 km/h 94% 0 mm WeatherDisplay:10.37 W/m2 OVC
22:25 20.1 °C 19.1 °C 1018.2 hPa Calm   1.6 km/h 94% 0 mm WeatherDisplay:10.37 W/m2 OVC
22:30 20.1 °C 19.1 °C 1018.5 hPa Calm     94% 0 mm WeatherDisplay:10.37 W/m2 OVC
22:40 20.1 °C 19.1 °C 1018.5 hPa Calm     94% 0 mm WeatherDisplay:10.37 W/m2 OVC
22:45 20.1 °C 19.1 °C 1018.5 hPa Calm     94% 0 mm WeatherDisplay:10.37 W/m2 OVC
22:50 20.1 °C 19.1 °C 1018.5 hPa Calm   1.6 km/h 94% 0 mm WeatherDisplay:10.37 W/m2 -RA
22:55 20.1 °C 19.1 °C 1018.8 hPa Calm   1.6 km/h 94% 0.25 mm WeatherDisplay:10.37 W/m2 -RA
23:00 20.1 °C 19.1 °C 1018.8 hPa Calm     94% 0.25 mm WeatherDisplay:10.37 W/m2 -RA
23:05 20.2 °C 19.2 °C 1018.8 hPa Calm     94% 0 mm WeatherDisplay:10.37 W/m2 -RA
23:10 20.2 °C 19.2 °C 1018.8 hPa Calm     94% 0.25 mm WeatherDisplay:10.37 W/m2 -RA
23:20 20.2 °C 19.2 °C 1018.8 hPa Calm     94% 0 mm WeatherDisplay:10.37 W/m2 -RA
23:25 20.2 °C 19.2 °C 1018.8 hPa Calm   1.6 km/h 94% 0.25 mm WeatherDisplay:10.37 W/m2 -RA
23:30 20.2 °C 19.2 °C 1018.8 hPa Calm   1.6 km/h 94% 0.25 mm WeatherDisplay:10.37 W/m2 -RA
23:35 20.2 °C 19.2 °C 1018.8 hPa Calm     94% 0 mm WeatherDisplay:10.37 W/m2 -RA
23:40 20.2 °C 19.2 °C 1018.8 hPa Calm   1.6 km/h 94% 0 mm WeatherDisplay:10.37 W/m2 -RA
23:45 20.2 °C 19.2 °C 1018.5 hPa Calm   1.6 km/h 94% 0.25 mm WeatherDisplay:10.37 W/m2 -RA
23:50 20.2 °C 19.2 °C 1018.5 hPa Calm   1.6 km/h 94% 0 mm WeatherDisplay:10.37 W/m2 -RA
23:55 20.2 °C 19.2 °C 1018.5 hPa Calm   1.6 km/h 94% 0 mm WeatherDisplay:10.37 W/m2 -RA
Piedmont Bend
Compliments of Weather Underground - 4 mb